Location: Roc des P�zouls
(43.9667°N, 3.5500°E)
Time: 08:49:39
(UTC+00:00)

MSX - Pass Details

Date: 14 November 2019
Orbit: 895 x 906 km, 98.8° (Epoch: 11 December)

Event Time Altitude Azimuth Distance (km) Brightness Sun altitude
Rises 04:30:50 0° 8° (N) 3,525 7.0 -23.0°
Reaches altitude 10° 04:33:19 10° 3° (N) 2,582 6.2 -22.6°
Maximum altitude 04:38:46 46° 292° (WNW) 1,195 4.0 -21.6°
Enters shadow 04:39:49 41° 262° (W) 1,274 4.1 -21.4°
